| time (UTC) | temp F | wind direction | speed knots | gust knots | rain 1hr in | rain 24hr in | rain mn in | humidity % | barometer mb |
| 20260505002014 | 78 | 217 | 0.9 | 0.9 | 0.00 | 0.00 | 0.00 | 66 | 1006.7 |
| 20260505001511 | 78 | 188 | 0.0 | 0.9 | 0.00 | 0.00 | 0.00 | 65 | 1006.9 |
| 20260505001008 | 78 | 231 | 0.9 | 0.9 | 0.00 | 0.00 | 0.00 | 65 | 1007.0 |
| 20260505000506 | 78 | 193 | 0.9 | 1.7 | 0.00 | 0.00 | 0.00 | 65 | 1006.7 |
| 20260505000003 | 78 | 194 | 0.0 | 0.0 | 0.00 | 0.00 | 0.00 | 64 | 1006.9 |
| 20260504235459 | 78 | 215 | 2.6 | 3.5 | 0.00 | 0.00 | 0.00 | 64 | 1006.9 |
| 20260504234956 | 78 | 186 | 0.0 | 0.0 | 0.00 | 0.00 | 0.00 | 64 | 1007.1 |
| 20260504234453 | 78 | 186 | 0.0 | 0.9 | 0.00 | 0.00 | 0.00 | 64 | 1007.2 |
| 20260504233949 | 78 | 203 | 1.7 | 2.6 | 0.00 | 0.00 | 0.00 | 63 | 1007.2 |
| 20260504233445 | 78 | 240 | 1.7 | 2.6 | 0.00 | 0.00 | 0.00 | 63 | 1007.1 |
| 20260504232943 | 78 | 197 | 0.0 | 0.0 | 0.00 | 0.00 | 0.00 | 63 | 1007.0 |
| 20260504232439 | 78 | 198 | 1.7 | 1.7 | 0.00 | 0.00 | 0.00 | 63 | 1007.1 |
| 20260504231937 | 79 | 208 | 0.0 | 0.9 | 0.00 | 0.00 | 0.00 | 63 | 1007.1 |
| 20260504231433 | 79 | 197 | 0.9 | 1.7 | 0.00 | 0.00 | 0.00 | 62 | 1007.0 |
| 20260504230929 | 79 | 180 | 0.9 | 0.9 | 0.00 | 0.00 | 0.00 | 63 | 1007.2 |
| 20260504230426 | 79 | 211 | 0.0 | 0.0 | 0.00 | 0.00 | 0.00 | 62 | 1007.3 |
| 20260504225925 | 79 | 172 | 0.9 | 1.7 | 0.00 | 0.00 | 0.00 | 62 | 1007.4 |
| 20260504225422 | 79 | 184 | 0.9 | 0.9 | 0.00 | 0.00 | 0.00 | 62 | 1007.1 |
| 20260504224919 | 80 | 179 | 1.7 | 2.6 | 0.00 | 0.00 | 0.00 | 62 | 1007.4 |
| 20260504224415 | 80 | 174 | 0.9 | 1.7 | 0.00 | 0.00 | 0.00 | 61 | 1007.3 |
| 20260504223913 | 80 | 240 | 0.0 | 0.9 | 0.00 | 0.00 | 0.00 | 61 | 1007.3 |
| 20260504223408 | 80 | 179 | 0.9 | 1.7 | 0.00 | 0.00 | 0.00 | 62 | 1007.4 |
| 20260504222904 | 80 | 187 | 1.7 | 1.7 | 0.00 | 0.00 | 0.00 | 61 | 1007.3 |
| 20260504222401 | 79 | 171 | 0.0 | 0.9 | 0.00 | 0.00 | 0.00 | 61 | 1007.4 |
| 20260504221900 | 79 | 176 | 0.9 | 1.7 | 0.00 | 0.00 | 0.00 | 61 | 1007.4 |
| 20260504221356 | 80 | 197 | 0.9 | 1.7 | 0.00 | 0.00 | 0.00 | 61 | 1007.7 |
| 20260504220854 | 80 | 189 | 0.0 | 0.0 | 0.00 | 0.00 | 0.00 | 61 | 1007.6 |
| 20260504220350 | 80 | 188 | 0.0 | 0.0 | 0.00 | 0.00 | 0.00 | 61 | 1007.8 |
| 20260504215847 | 80 | 198 | 0.0 | 0.9 | 0.00 | 0.00 | 0.00 | 60 | 1007.7 |
| 20260504215343 | 79 | 189 | 0.9 | 0.9 | 0.00 | 0.00 | 0.00 | 60 | 1007.9 |
| 20260504214840 | 80 | 176 | 2.6 | 2.6 | 0.00 | 0.00 | 0.00 | 59 | 1007.8 |
| 20260504214337 | 80 | 207 | 0.9 | 1.7 | 0.00 | 0.00 | 0.00 | 59 | 1007.7 |
| 20260504213833 | 80 | 177 | 1.7 | 2.6 | 0.00 | 0.00 | 0.00 | 60 | 1008.0 |
| 20260504213329 | 80 | 255 | 0.9 | 0.9 | 0.00 | 0.00 | 0.00 | 60 | 1008.1 |
| 20260504212827 | 80 | 171 | 0.9 | 1.7 | 0.00 | 0.00 | 0.00 | 59 | 1008.0 |
| 20260504212323 | 81 | 197 | 1.7 | 2.6 | 0.00 | 0.00 | 0.00 | 58 | 1008.3 |
| 20260504211821 | 80 | 226 | 0.9 | 0.9 | 0.00 | 0.00 | 0.00 | 59 | 1008.3 |
| 20260504211316 | 80 | 198 | 0.0 | 0.0 | 0.00 | 0.00 | 0.00 | 60 | 1008.4 |
| 20260504210814 | 80 | 194 | 0.0 | 0.0 | 0.00 | 0.00 | 0.00 | 60 | 1008.5 |
| 20260504210311 | 80 | 253 | 0.0 | 0.0 | 0.00 | 0.00 | 0.00 | 60 | 1008.4 |
| 20260504205808 | 80 | 203 | 0.0 | 0.9 | 0.00 | 0.00 | 0.00 | 60 | 1008.7 |
| 20260504205306 | 80 | 193 | 3.5 | 5.2 | 0.00 | 0.00 | 0.00 | 60 | 1008.9 |
| 20260504204804 | 79 | 192 | 1.7 | 1.7 | 0.00 | 0.00 | 0.00 | 60 | 1008.8 |
| 20260504204302 | 80 | 196 | 1.7 | 1.7 | 0.00 | 0.00 | 0.00 | 60 | 1008.9 |
| 20260504203801 | 80 | 219 | 0.9 | 1.7 | 0.00 | 0.00 | 0.00 | 60 | 1009.2 |
| 20260504203258 | 80 | 204 | 0.9 | 0.9 | 0.00 | 0.00 | 0.00 | 60 | 1009.0 |
| 20260504202758 | 80 | 200 | 0.0 | 0.0 | 0.00 | 0.00 | 0.00 | 60 | 1009.4 |
| 20260504202256 | 79 | 225 | 0.0 | 0.0 | 0.00 | 0.00 | 0.00 | 60 | 1009.4 |
| 20260504201753 | 79 | 312 | 0.9 | 1.7 | 0.00 | 0.00 | 0.00 | 59 | 1009.6 |
| 20260504201250 | 79 | 208 | 1.7 | 2.6 | 0.00 | 0.00 | 0.00 | 59 | 1009.6 |
| 20260504200748 | 79 | 201 | 0.9 | 1.7 | 0.00 | 0.00 | 0.00 | 58 | 1009.8 |
| 20260504200243 | 79 | 190 | 0.0 | 0.0 | 0.00 | 0.00 | 0.00 | 59 | 1009.9 |
| 20260504195740 | 79 | 186 | 0.9 | 1.7 | 0.00 | 0.00 | 0.00 | 57 | 1009.9 |
| 20260504195236 | 79 | 228 | 0.9 | 0.9 | 0.00 | 0.00 | 0.00 | 58 | 1010.4 |
| 20260504194733 | 79 | 204 | 0.9 | 0.9 | 0.00 | 0.00 | 0.00 | 57 | 1010.0 |
| 20260504194229 | 79 | 211 | 0.9 | 3.5 | 0.00 | 0.00 | 0.00 | 57 | 1010.2 |
| 20260504193726 | 79 | 223 | 0.0 | 0.9 | 0.00 | 0.00 | 0.00 | 59 | 1010.2 |
| 20260504193223 | 79 | 199 | 0.0 | 0.0 | 0.00 | 0.00 | 0.00 | 58 | 1010.3 |
| 20260504192722 | 79 | 195 | 0.9 | 1.7 | 0.00 | 0.00 | 0.00 | 58 | 1010.4 |
| 20260504192219 | 78 | 175 | 1.7 | 2.6 | 0.00 | 0.00 | 0.00 | 57 | 1010.6 |
| 20260504191718 | 78 | 204 | 0.0 | 0.9 | 0.00 | 0.00 | 0.00 | 58 | 1010.7 |
| 20260504191214 | 79 | 167 | 1.7 | 2.6 | 0.00 | 0.00 | 0.00 | 56 | 1010.6 |
| 20260504190709 | 79 | 299 | 3.5 | 5.2 | 0.00 | 0.00 | 0.00 | 55 | 1010.6 |
| 20260504190206 | 78 | 150 | 0.9 | 2.6 | 0.00 | 0.00 | 0.00 | 56 | 1010.8 |
| 20260504185703 | 78 | 201 | 0.9 | 0.9 | 0.00 | 0.00 | 0.00 | 57 | 1010.8 |
| 20260504185159 | 78 | 188 | 0.0 | 0.0 | 0.00 | 0.00 | 0.00 | 57 | 1010.8 |
| 20260504184656 | 78 | 194 | 2.6 | 3.5 | 0.00 | 0.00 | 0.00 | 56 | 1010.9 |
| 20260504184150 | 78 | 221 | 1.7 | 3.5 | 0.00 | 0.00 | 0.00 | 55 | 1010.9 |
| 20260504183647 | 77 | 179 | 1.7 | 1.7 | 0.00 | 0.00 | 0.00 | 58 | 1011.0 |
| 20260504183145 | 78 | 187 | 2.6 | 2.6 | 0.00 | 0.00 | 0.00 | 55 | 1011.0 |
| 20260504182643 | 77 | 185 | 1.7 | 2.6 | 0.00 | 0.00 | 0.00 | 56 | 1011.1 |
| 20260504182140 | 77 | 171 | 0.9 | 1.7 | 0.00 | 0.00 | 0.00 | 55 | 1011.5 |
| 20260504181637 | 77 | 203 | 0.9 | 0.9 | 0.00 | 0.00 | 0.00 | 55 | 1011.4 |
| 20260504181135 | 77 | 208 | 0.0 | 0.9 | 0.00 | 0.00 | 0.00 | 56 | 1011.5 |
| 20260504180634 | 77 | 215 | 0.0 | 0.0 | 0.00 | 0.00 | 0.00 | 55 | 1011.5 |
| 20260504180132 | 77 | 177 | 3.5 | 6.1 | 0.00 | 0.00 | 0.00 | 53 | 1011.3 |
| 20260504175629 | 77 | 235 | 0.9 | 1.7 | 0.00 | 0.00 | 0.00 | 54 | 1011.6 |
| 20260504175125 | 77 | 195 | 0.0 | 0.9 | 0.00 | 0.00 | 0.00 | 53 | 1011.9 |
| 20260504174624 | 77 | 201 | 0.0 | 0.9 | 0.00 | 0.00 | 0.00 | 52 | 1011.9 |
| 20260504174120 | 77 | 171 | 0.0 | 0.9 | 0.00 | 0.00 | 0.00 | 55 | 1011.9 |
| 20260504173617 | 77 | 193 | 0.9 | 1.7 | 0.00 | 0.00 | 0.00 | 53 | 1011.8 |
| 20260504173115 | 77 | 192 | 0.9 | 0.9 | 0.00 | 0.00 | 0.00 | 53 | 1012.0 |
| 20260504172611 | 77 | 286 | 0.9 | 0.9 | 0.00 | 0.00 | 0.00 | 53 | 1012.1 |
| 20260504172108 | 76 | 192 | 0.0 | 0.0 | 0.00 | 0.00 | 0.00 | 51 | 1012.0 |
| 20260504171604 | 76 | 173 | 0.9 | 0.9 | 0.00 | 0.00 | 0.00 | 53 | 1012.2 |
| 20260504171101 | 76 | 196 | 0.9 | 1.7 | 0.00 | 0.00 | 0.00 | 52 | 1012.2 |
| 20260504170557 | 76 | 217 | 0.9 | 1.7 | 0.00 | 0.00 | 0.00 | 53 | 1012.4 |
| 20260504150941 | 70 | 174 | 1.7 | 2.6 | 0.00 | 0.00 | 0.00 | 65 | 1013.6 |
| 20260504150437 | 70 | 178 | 0.9 | 1.7 | 0.00 | 0.00 | 0.00 | 66 | 1013.8 |
| 20260504140904 | 67 | 135 | 1.7 | 2.6 | 0.00 | 0.00 | 0.00 | 71 | 1014.2 |
| 20260504140400 | 67 | 176 | 1.7 | 1.7 | 0.00 | 0.00 | 0.00 | 71 | 1014.1 |
| 20260504130325 | 64 | 176 | 0.0 | 0.0 | 0.00 | 0.00 | 0.00 | 76 | 1014.1 |
| 20260504120248 | 63 | 208 | 0.0 | 0.9 | 0.00 | 0.00 | 0.00 | 75 | 1013.7 |
| 20260504110716 | 63 | 195 | 0.0 | 0.0 | 0.00 | 0.00 | 0.00 | 73 | 1013.5 |
| 20260504110212 | 63 | 174 | 0.0 | 0.0 | 0.00 | 0.00 | 0.00 | 72 | 1013.6 |
| 20260504100136 | 63 | 205 | 0.0 | 0.0 | 0.00 | 0.00 | 0.00 | 73 | 1014.0 |
| 20260504081529 | 63 | 189 | 0.0 | 0.0 | 0.00 | 0.00 | 0.00 | 68 | 1014.3 |
| 20260504081025 | 63 | 198 | 0.0 | 0.0 | 0.00 | 0.00 | 0.00 | 68 | 1014.4 |
| 20260504080522 | 64 | 172 | 0.0 | 0.0 | 0.00 | 0.00 | 0.00 | 68 | 1014.6 |
| 20260504050335 | 65 | 194 | 0.0 | 0.0 | 0.00 | 0.00 | 0.00 | 64 | 1016.3 |
| 20260504045832 | 65 | 181 | 0.0 | 0.0 | 0.00 | 0.00 | 0.00 | 64 | 1016.4 |
| 20260504045326 | 66 | 188 | 0.0 | 0.0 | 0.00 | 0.00 | 0.00 | 64 | 1016.4 |
| 20260504044824 | 66 | 180 | 0.0 | 0.0 | 0.00 | 0.00 | 0.00 | 63 | 1016.6 |
| 20260504044321 | 66 | 196 | 0.0 | 0.0 | 0.00 | 0.00 | 0.00 | 63 | 1016.6 |
| 20260504043818 | 66 | 192 | 0.0 | 0.0 | 0.00 | 0.00 | 0.00 | 63 | 1016.5 |
| 20260504043315 | 66 | 183 | 0.0 | 0.0 | 0.00 | 0.00 | 0.00 | 63 | 1016.6 |
| 20260504042813 | 66 | 188 | 0.0 | 0.0 | 0.00 | 0.00 | 0.00 | 62 | 1016.6 |
| 20260504042309 | 66 | 190 | 0.0 | 0.0 | 0.00 | 0.00 | 0.00 | 62 | 1016.5 |
| 20260504041805 | 66 | 186 | 0.0 | 0.0 | 0.00 | 0.00 | 0.00 | 62 | 1016.4 |
| 20260504041301 | 66 | 188 | 0.0 | 0.0 | 0.00 | 0.00 | 0.00 | 62 | 1016.6 |
| 20260504040758 | 66 | 179 | 0.0 | 0.0 | 0.00 | 0.00 | 0.00 | 62 | 1016.4 |
| 20260504040255 | 66 | 192 | 0.0 | 0.0 | 0.00 | 0.00 | 0.00 | 62 | 1016.6 |
| 20260504035751 | 66 | 184 | 0.0 | 0.0 | 0.00 | 0.00 | 0.00 | 61 | 1016.4 |
| 20260504035248 | 67 | 188 | 0.0 | 0.0 | 0.00 | 0.00 | 0.00 | 60 | 1016.5 |
| 20260504034746 | 67 | 183 | 0.0 | 0.0 | 0.00 | 0.00 | 0.00 | 60 | 1016.5 |
| 20260504034243 | 67 | 194 | 0.0 | 0.0 | 0.00 | 0.00 | 0.00 | 59 | 1016.5 |
| 20260504033740 | 67 | 198 | 0.0 | 0.0 | 0.00 | 0.00 | 0.00 | 58 | 1016.4 |
| 20260504033238 | 68 | 194 | 0.0 | 0.0 | 0.00 | 0.00 | 0.00 | 58 | 1016.6 |
| 20260504032735 | 68 | 194 | 0.0 | 0.0 | 0.00 | 0.00 | 0.00 | 57 | 1016.5 |
| 20260504032232 | 68 | 183 | 0.0 | 0.0 | 0.00 | 0.00 | 0.00 | 57 | 1016.3 |
| 20260504031728 | 68 | 184 | 0.0 | 0.0 | 0.00 | 0.00 | 0.00 | 56 | 1016.3 |
| 20260504031226 | 68 | 195 | 0.0 | 0.0 | 0.00 | 0.00 | 0.00 | 56 | 1016.1 |
| 20260504030721 | 69 | 197 | 0.0 | 0.0 | 0.00 | 0.00 | 0.00 | 55 | 1016.4 |
| 20260504030219 | 69 | 200 | 0.0 | 0.0 | 0.00 | 0.00 | 0.00 | 55 | 1016.1 |
| 20260504025715 | 69 | 194 | 0.0 | 0.0 | 0.00 | 0.00 | 0.00 | 54 | 1016.1 |
| 20260504025212 | 69 | 180 | 0.0 | 0.0 | 0.00 | 0.00 | 0.00 | 54 | 1016.4 |
| 20260504024709 | 69 | 194 | 0.0 | 0.0 | 0.00 | 0.00 | 0.00 | 54 | 1016.0 |
| 20260504024206 | 69 | 200 | 0.0 | 0.0 | 0.00 | 0.00 | 0.00 | 53 | 1016.1 |
| 20260504023703 | 70 | 196 | 0.0 | 0.0 | 0.00 | 0.00 | 0.00 | 53 | 1016.0 |
| 20260504023158 | 70 | 191 | 0.0 | 0.0 | 0.00 | 0.00 | 0.00 | 51 | 1016.0 |
| 20260504022655 | 70 | 201 | 0.0 | 0.0 | 0.00 | 0.00 | 0.00 | 50 | 1016.4 |
| 20260504022150 | 71 | 187 | 0.0 | 0.0 | 0.00 | 0.00 | 0.00 | 51 | 1016.4 |
| 20260504021649 | 71 | 187 | 0.0 | 0.0 | 0.00 | 0.00 | 0.00 | 50 | 1016.1 |
| 20260504021145 | 71 | 193 | 0.0 | 0.0 | 0.00 | 0.00 | 0.00 | 49 | 1016.1 |
| 20260504020642 | 72 | 187 | 0.0 | 0.0 | 0.00 | 0.00 | 0.00 | 49 | 1016.3 |
| 20260504020138 | 72 | 195 | 0.0 | 0.0 | 0.00 | 0.00 | 0.00 | 48 | 1016.0 |
| 20260504015635 | 72 | 199 | 0.0 | 0.0 | 0.00 | 0.00 | 0.00 | 49 | 1015.7 |
| 20260504015131 | 72 | 198 | 0.0 | 0.0 | 0.00 | 0.00 | 0.00 | 48 | 1016.0 |
| 20260504014627 | 72 | 193 | 0.0 | 0.0 | 0.00 | 0.00 | 0.00 | 48 | 1015.9 |
| 20260504014124 | 72 | 195 | 0.0 | 0.0 | 0.00 | 0.00 | 0.00 | 49 | 1015.8 |
| 20260504013622 | 73 | 199 | 0.0 | 0.0 | 0.00 | 0.00 | 0.00 | 48 | 1016.0 |
| 20260504013119 | 73 | 205 | 0.0 | 0.0 | 0.00 | 0.00 | 0.00 | 46 | 1015.9 |
| 20260504012616 | 73 | 192 | 0.0 | 0.0 | 0.00 | 0.00 | 0.00 | 47 | 1015.8 |
| 20260504012114 | 74 | 198 | 0.0 | 0.0 | 0.00 | 0.00 | 0.00 | 46 | 1015.8 |
| 20260504011611 | 74 | 192 | 0.0 | 0.0 | 0.00 | 0.00 | 0.00 | 45 | 1015.7 |
| 20260504011107 | 74 | 199 | 0.0 | 0.0 | 0.00 | 0.00 | 0.00 | 44 | 1015.8 |
| 20260504010603 | 75 | 201 | 0.0 | 0.0 | 0.00 | 0.00 | 0.00 | 44 | 1016.0 |
| 20260504010059 | 75 | 195 | 0.0 | 0.0 | 0.00 | 0.00 | 0.00 | 45 | 1015.8 |
| 20260504005555 | 75 | 194 | 0.0 | 0.0 | 0.00 | 0.00 | 0.00 | 44 | 1015.7 |
| 20260504005053 | 75 | 190 | 0.0 | 0.0 | 0.00 | 0.00 | 0.00 | 44 | 1015.6 |
| 20260504004551 | 75 | 190 | 0.0 | 0.0 | 0.00 | 0.00 | 0.00 | 43 | 1015.6 |
| 20260504004048 | 76 | 196 | 0.0 | 0.0 | 0.00 | 0.00 | 0.00 | 42 | 1015.7 |
| 20260504003543 | 76 | 201 | 0.0 | 0.0 | 0.00 | 0.00 | 0.00 | 40 | 1015.9 |
| 20260504003041 | 76 | 179 | 0.0 | 0.0 | 0.00 | 0.00 | 0.00 | 40 | 1015.7 |
| 20260504002537 | 76 | 225 | 0.0 | 0.0 | 0.00 | 0.00 | 0.00 | 42 | 1015.8 |